SCP
-0 -0 -0 -0 -0 0 -0 0 0 -0 -0 -0 -0 -0 0 0 0 0 0 -0 0 0 0 0 0 0 0 0 0 0 0 0
-0 -0 -0 -0 -0 -0 -0 -0 -0 -0 0 0 0 0 0 0 0 -0 -0 0 0 0 -0 0 0 0 0 0 0 0 0 0
-0 -0 -0 -0 -0 -0 -0 -0 -0 -0 0 0 0 0 0 0 -0 -0 0 0 0 0 0 0 0 0 0 0 0 0 0 0
-0 -0 -0 -0 -0 -0 -0 -0 -0 -0 -0 -0 0 -0 -0 0 0 0 0 0 0 0 0 0 0 0 0 0 0 0 0 0
-0 -0 -0 -0 -0 -0 -0 -0 -0 -0 0 0 -0 0 0 0 0 0 0 0 0 0 0 0 0 0 0 0 0 0 0 0
-0 -0 -0 -0 -0 -0 -0 -0 -0 -0 -0 -0 0 0 0 0 0 0 0 0 0 0 0 0 0 0 0 0 0 0 0 0
-0 -0 -0 -0 -0 -0 -0 -0 -0 -0 -0 -0 0 0 0 0 0 1 0 0 0 0 0 0 0 0 0 0 0 0 0 0
-0 -0 -0 -0 -0 -0 -0 -0 -0 -0 -0 -0 -0 0 0 0 0 1 0 0 0 0 0 0 0 0 0 0 0 0 0 0
-0 -0 -0 -0 -0 -0 -0 -0 0 -0 -0 -0 0 0 0 0 0 0 0 1 0 0 0 0 0 0 0 0 0 0 0 0
-0 -0 -0 -0 0 0 0 0 0 0 0 0 1 0 0 1 1 1 1 1 0 0 0 0 0 0 0 0 0 0 0 0
0 0 -0 -0 -0 0 -0 0 0 0 0 0 1 1 1 1 1 1 0 0 0 0 0 0 0 0 0 0 0 0 0 0
0 0 0 0 0 0 0 0 0 0 0 1 1 1 1 1 1 0 0 0 0 0 0 0 0 0 0 0 0 0 0 0
0 0 0 0 0 0 0 0 0 0 1 1 1 1 1 1 0 0 0 0 0 0 0 0 0 0 0 0 0 0 0 0
0 0 0 0 0 0 0 1 1 1 1 1 0 0 0 0 0 0 0 0 0 0 0 0 0 0 0 0 0 0 0 0
0 0 0 0 1 1 1 2 2 2 1 0 0 0 0 0 0 0 0 0 0 0 0 0 0 0 0 0 0 0 0 0
0 0 0 1 1 2 1 0 0 0 0 0 0 0 0 0 0 0 0 0 0 0 0 0 0 0 0 0 0 0 0 0
0 1 1 2 1 1 0 0 0 0 0 0 0 0 0 0 0 0 0 0 0 0 0 0 0 0 0 0 0 0 0 0
0 1 1 1 1 0 0 0 0 0 0 0 0 0 0 0 0 0 0 0 0 0 0 0 0 0 0 0 0 0 0 0
0 0 0 0 0 0 0 0 0 0 0 0 0 0 0 0 0 0 0 0 0 0 0 0 0 0 0 0 0 0 0 0
Wind_Speed_500mb
33 35 42 45 54 60 57 56 67 37 32 31 29 32 33 34 33 35 43 39 36 38 31 30 39 36 33 34 33 28 19 15
38 44 45 47 50 55 58 61 57 43 37 39 39 35 32 34 36 42 48 43 42 41 38 37 48 34 37 37 39 33 21 18
43 51 52 54 56 57 57 54 49 44 38 37 36 34 34 38 40 37 44 50 37 37 40 39 43 37 43 44 43 36 23 21
48 52 55 56 59 61 58 53 49 45 40 37 37 36 38 40 41 42 56 58 52 44 48 48 46 40 43 46 47 41 27 24
54 56 60 61 62 59 57 52 49 46 44 41 40 40 39 40 41 43 56 60 52 49 60 55 44 41 53 46 46 40 34 31
60 63 64 64 62 66 61 55 51 48 46 47 43 45 39 37 37 41 52 53 57 56 55 58 52 65 54 49 46 44 32 33
57 58 58 59 59 61 63 60 58 55 54 53 54 48 47 40 39 50 48 51 48 47 46 57 64 60 54 50 45 41 50 44
58 60 62 61 63 65 65 61 61 59 61 60 57 54 49 45 46 50 38 39 43 47 49 45 58 56 52 41 50 51 47 49
60 61 63 62 65 64 61 59 59 57 58 59 49 50 55 57 51 47 46 47 49 57 50 46 46 52 55 59 47 53 57 45
55 61 61 60 58 61 63 56 54 54 59 51 57 53 62 57 48 51 56 46 54 50 43 45 54 60 60 43 61 58 48 46
28 49 59 57 54 53 52 52 51 51 54 49 55 55 63 53 49 55 55 48 45 39 37 43 43 42 49 55 58 57 50 41
16 27 39 52 49 46 46 45 46 45 45 51 47 53 48 34 32 41 41 40 36 37 41 39 35 51 60 55 47 47 36 27
12 17 25 34 41 43 42 40 40 39 37 38 39 32 36 38 36 38 38 37 34 32 34 39 46 50 48 43 45 35 24 30
16 19 24 28 32 35 35 32 32 32 30 40 42 41 40 35 30 30 31 30 30 31 33 35 37 37 39 33 24 22 23 27
21 23 26 29 31 33 33 36 38 35 46 47 38 33 28 21 19 19 19 23 25 23 25 27 29 29 27 21 26 29 29 32
25 27 27 29 30 32 29 39 41 40 33 27 23 18 15 13 14 13 15 18 19 20 23 20 19 15 17 25 32 36 36 37
26 28 29 30 30 31 28 26 28 26 24 20 19 16 19 20 17 16 14 12 10 9 10 11 11 23 27 30 33 37 36 34
26 30 31 30 29 30 31 25 25 24 24 28 28 29 26 24 21 20 15 10 2 7 12 16 20 27 28 25 25 34 39 41
32 34 34 33 34 35 36 33 32 32 33 31 30 28 27 25 21 17 9 5 3 8 10 9 11 15 28 36 39 43 44 43
Wind_Direction_500mb
172 162 160 159 162 162 164 170 169 174 187 188 202 201 204 205 212 219 218 221 231 232 225 223 228 227 235 228 229 226 209 225
177 174 170 167 172 175 177 178 183 193 196 197 202 209 209 213 216 221 227 229 240 235 233 231 240 233 227 234 237 232 221 226
183 183 183 184 185 184 181 187 194 197 202 206 211 216 219 219 222 224 231 228 226 239 236 229 239 220 230 237 234 233 213 221
187 188 192 191 192 193 195 198 202 202 206 211 216 217 219 220 222 227 236 236 241 253 249 224 238 221 236 237 231 229 211 227
193 194 197 199 199 200 202 204 206 210 211 214 215 218 219 221 222 225 238 240 240 248 254 238 231 227 232 241 233 230 220 230
197 200 200 202 204 206 207 209 211 213 215 215 219 221 224 225 227 226 240 246 244 250 249 239 229 230 241 238 233 228 224 222
202 204 203 205 207 208 212 212 215 217 218 220 219 222 221 224 227 234 247 248 253 251 239 231 235 245 239 236 223 227 227 239
204 202 202 205 207 209 210 214 217 219 219 220 224 224 225 227 223 242 243 252 239 247 248 259 249 249 237 225 220 232 237 243
211 208 206 206 207 208 211 213 216 217 220 220 221 236 233 234 235 233 238 234 242 255 258 262 260 248 219 226 236 236 241 239
214 211 210 208 207 208 211 213 217 217 223 217 220 235 233 235 237 233 233 240 244 260 264 260 250 237 236 256 248 239 245 250
211 215 209 211 209 209 210 213 215 218 223 227 222 224 235 237 238 237 241 250 258 261 265 255 250 234 237 246 241 236 246 258
186 202 212 210 210 208 207 212 212 216 216 223 228 228 239 240 241 243 252 255 258 260 259 248 233 230 235 236 238 248 255 273
157 167 181 195 203 205 206 207 206 206 209 214 223 224 215 218 230 241 250 256 257 251 246 250 244 245 242 243 240 243 274 289
157 157 158 164 173 179 182 181 183 185 188 202 207 212 215 224 234 237 241 245 238 235 240 246 242 231 230 234 243 275 288 290
171 159 155 155 158 158 157 161 164 159 189 202 209 210 215 217 223 229 226 228 226 225 238 241 238 236 234 237 279 286 282 280
193 181 166 157 150 148 171 177 180 187 192 189 186 190 199 209 201 205 219 212 213 225 229 218 215 212 263 280 283 280 281 296
197 193 174 162 156 154 149 163 173 179 174 182 173 178 160 159 164 164 167 191 203 227 205 199 246 274 275 281 282 284 289 283
180 175 167 159 156 148 145 148 150 155 147 141 140 140 144 140 138 138 142 149 167 215 244 260 265 279 288 283 290 287 286 285
162 159 155 148 143 139 133 132 129 129 130 133 133 132 129 132 128 121 117 133 218 256 285 318 351 332 297 293 287 286 290 289
Wind_Speed_850mb
33 35 42 45 54 60 57 56 67 37 32 31 29 32 33 34 33 35 43 39 36 38 31 30 39 36 33 34 33 28 19 15
38 44 45 47 50 55 58 61 57 43 37 39 39 35 32 34 36 42 48 43 42 41 38 37 48 34 37 37 39 33 21 18
43 51 52 54 56 57 57 54 49 44 38 37 36 34 34 38 40 37 44 50 37 37 40 39 43 37 43 44 43 36 23 21
48 52 55 56 59 61 58 53 49 45 40 37 37 36 38 40 41 42 56 58 52 44 48 48 46 40 43 46 47 41 27 24
54 56 60 61 62 59 57 52 49 46 44 41 40 40 39 40 41 43 56 60 52 49 60 55 44 41 53 46 46 40 34 31
60 63 64 64 62 66 61 55 51 48 46 47 43 45 39 37 37 41 52 53 57 56 55 58 52 65 54 49 46 44 32 33
57 58 58 59 59 61 63 60 58 55 54 53 54 48 47 40 39 50 48 51 48 47 46 57 64 60 54 50 45 41 50 44
58 60 62 61 63 65 65 61 61 59 61 60 57 54 49 45 46 50 38 39 43 47 49 45 58 56 52 41 50 51 47 49
60 61 63 62 65 64 61 59 59 57 58 59 49 50 55 57 51 47 46 47 49 57 50 46 46 52 55 59 47 53 57 45
55 61 61 60 58 61 63 56 54 54 59 51 57 53 62 57 48 51 56 46 54 50 43 45 54 60 60 43 61 58 48 46
28 49 59 57 54 53 52 52 51 51 54 49 55 55 63 53 49 55 55 48 45 39 37 43 43 42 49 55 58 57 50 41
16 27 39 52 49 46 46 45 46 45 45 51 47 53 48 34 32 41 41 40 36 37 41 39 35 51 60 55 47 47 36 27
12 17 25 34 41 43 42 40 40 39 37 38 39 32 36 38 36 38 38 37 34 32 34 39 46 50 48 43 45 35 24 30
16 19 24 28 32 35 35 32 32 32 30 40 42 41 40 35 30 30 31 30 30 31 33 35 37 37 39 33 24 22 23 27
21 23 26 29 31 33 33 36 38 35 46 47 38 33 28 21 19 19 19 23 25 23 25 27 29 29 27 21 26 29 29 32
25 27 27 29 30 32 29 39 41 40 33 27 23 18 15 13 14 13 15 18 19 20 23 20 19 15 17 25 32 36 36 37
26 28 29 30 30 31 28 26 28 26 24 20 19 16 19 20 17 16 14 12 10 9 10 11 11 23 27 30 33 37 36 34
26 30 31 30 29 30 31 25 25 24 24 28 28 29 26 24 21 20 15 10 2 7 12 16 20 27 28 25 25 34 39 41
32 34 34 33 34 35 36 33 32 32 33 31 30 28 27 25 21 17 9 5 3 8 10 9 11 15 28 36 39 43 44 43
Wind_Direction_850mb
172 162 160 159 162 162 164 170 169 174 187 188 202 201 204 205 212 219 218 221 231 232 225 223 228 227 235 228 229 226 209 225
177 174 170 167 172 175 177 178 183 193 196 197 202 209 209 213 216 221 227 229 240 235 233 231 240 233 227 234 237 232 221 226
183 183 183 184 185 184 181 187 194 197 202 206 211 216 219 219 222 224 231 228 226 239 236 229 239 220 230 237 234 233 213 221
187 188 192 191 192 193 195 198 202 202 206 211 216 217 219 220 222 227 236 236 241 253 249 224 238 221 236 237 231 229 211 227
193 194 197 199 199 200 202 204 206 210 211 214 215 218 219 221 222 225 238 240 240 248 254 238 231 227 232 241 233 230 220 230
197 200 200 202 204 206 207 209 211 213 215 215 219 221 224 225 227 226 240 246 244 250 249 239 229 230 241 238 233 228 224 222
202 204 203 205 207 208 212 212 215 217 218 220 219 222 221 224 227 234 247 248 253 251 239 231 235 245 239 236 223 227 227 239
204 202 202 205 207 209 210 214 217 219 219 220 224 224 225 227 223 242 243 252 239 247 248 259 249 249 237 225 220 232 237 243
211 208 206 206 207 208 211 213 216 217 220 220 221 236 233 234 235 233 238 234 242 255 258 262 260 248 219 226 236 236 241 239
214 211 210 208 207 208 211 213 217 217 223 217 220 235 233 235 237 233 233 240 244 260 264 260 250 237 236 256 248 239 245 250
211 215 209 211 209 209 210 213 215 218 223 227 222 224 235 237 238 237 241 250 258 261 265 255 250 234 237 246 241 236 246 258
186 202 212 210 210 208 207 212 212 216 216 223 228 228 239 240 241 243 252 255 258 260 259 248 233 230 235 236 238 248 255 273
157 167 181 195 203 205 206 207 206 206 209 214 223 224 215 218 230 241 250 256 257 251 246 250 244 245 242 243 240 243 274 289
157 157 158 164 173 179 182 181 183 185 188 202 207 212 215 224 234 237 241 245 238 235 240 246 242 231 230 234 243 275 288 290
171 159 155 155 158 158 157 161 164 159 189 202 209 210 215 217 223 229 226 228 226 225 238 241 238 236 234 237 279 286 282 280
193 181 166 157 150 148 171 177 180 187 192 189 186 190 199 209 201 205 219 212 213 225 229 218 215 212 263 280 283 280 281 296
197 193 174 162 156 154 149 163 173 179 174 182 173 178 160 159 164 164 167 191 203 227 205 199 246 274 275 281 282 284 289 283
180 175 167 159 156 148 145 148 150 155 147 141 140 140 144 140 138 138 142 149 167 215 244 260 265 279 288 283 290 287 286 285
162 159 155 148 143 139 133 132 129 129 130 133 133 132 129 132 128 121 117 133 218 256 285 318 351 332 297 293 287 286 290 289